Theta_e
313 313 313 313 313 313 312 312 311 311 311 311 311 311 311 311 311 311 312 312 313 314 314 315 315 315 316 316 316 316 315 309 308 307 307 307 315 319 319 322 324 326 326 308 303 301 298 299 299 301 301 299 296 296 297 301 298 297 291 288 285 286 288 290 292 294 295 295 296 296 300 299 298 303 305 310 308 308 309 309 311 314 314 317 316 318 321 321
312 312 313 312 312 312 312 312 312 311 311 311 311 311 311 311 311 311 312 312 313 314 314 315 315 315 315 315 316 316 312 309 307 308 308 315 323 322 322 325 327 326 319 302 300 299 298 297 298 299 300 295 296 295 300 295 301 293 289 288 286 287 290 295 296 296 295 296 295 298 297 298 299 300 301 304 304 307 306 308 310 309 311 313 314 314 315 317
312 312 312 311 311 311 311 312 311 311 311 311 312 312 312 312 311 311 312 313 314 314 314 315 315 315 315 315 315 316 311 308 308 305 307 322 322 323 325 326 327 328 305 300 299 299 298 297 299 298 296 294 293 293 297 293 298 293 292 287 288 293 294 298 298 297 297 296 297 297 299 298 299 300 302 303 304 307 305 305 307 308 308 310 311 311 312 312
312 312 312 312 312 312 311 311 312 312 312 312 312 312 312 311 312 312 313 313 314 314 314 314 315 315 315 315 316 312 309 306 303 309 310 323 325 324 324 327 327 325 307 303 301 301 301 300 300 300 297 294 293 298 294 293 295 293 292 287 290 294 294 294 299 297 297 298 297 296 296 297 300 299 301 303 302 303 306 309 308 307 308 309 310 310 310 310
312 313 312 312 312 311 311 311 312 312 312 312 312 311 312 312 312 313 313 313 314 314 314 314 315 315 315 315 315 311 304 293 298 306 306 326 328 327 326 327 326 312 302 302 301 301 300 299 300 300 296 290 293 295 292 294 297 296 292 295 295 295 293 297 298 298 298 297 297 296 297 298 299 300 301 302 299 298 306 309 311 311 311 309 309 309 310 310
312 312 312 312 312 312 311 312 311 312 312 312 312 312 312 312 312 312 313 313 314 314 314 314 314 315 315 315 312 308 302 287 301 304 327 325 327 327 328 328 327 304 303 302 301 301 302 300 299 295 292 292 291 290 291 295 298 290 293 293 295 296 295 297 299 298 298 298 296 296 297 298 297 297 298 296 296 301 304 312 313 312 312 312 311 310 310 311
312 312 313 312 312 312 312 312 312 312 312 312 312 312 312 312 313 313 313 314 314 314 314 314 315 315 315 314 309 308 301 300 307 310 325 327 327 327 331 331 326 302 303 301 301 300 300 299 299 294 295 293 291 292 295 296 297 294 292 295 296 296 296 297 298 297 295 296 297 298 298 296 298 295 298 298 300 301 305 312 312 313 312 312 310 310 310 312
312 312 312 312 312 312 312 312 312 312 312 312 312 312 312 312 313 313 313 313 314 314 314 314 314 315 315 309 306 302 301 302 311 314 329 328 326 327 322 307 302 302 301 299 300 300 301 298 297 297 293 292 291 294 296 295 296 293 293 295 296 296 296 297 296 296 296 295 297 297 297 296 297 296 297 297 303 307 310 311 312 311 311 310 310 309 310 312
312 312 312 312 313 313 313 312 312 313 313 313 312 312 313 313 313 313 313 313 314 314 314 314 315 315 315 309 303 299 300 310 314 314 323 321 318 319 306 303 303 301 301 301 301 302 301 297 299 298 292 294 296 295 296 294 290 295 295 296 297 297 296 295 297 297 296 299 296 295 297 297 298 298 297 297 305 308 310 311 310 310 309 309 309 309 311 311
312 312 313 313 313 313 313 313 313 313 313 313 313 313 313 312 312 313 314 314 314 314 315 315 315 314 310 306 303 296 306 309 309 316 316 315 316 313 308 306 304 303 301 301 301 301 299 299 300 300 298 297 299 295 296 294 290 294 296 296 296 296 296 296 296 298 297 297 297 298 297 295 296 296 291 299 305 309 309 309 309 309 308 308 309 310 311 310
312 312 313 313 313 313 313 313 313 313 313 313 313 313 313 313 313 313 313 314 314 314 315 315 315 313 307 307 298 295 312 306 307 313 313 311 310 308 305 306 305 303 302 302 301 302 302 302 303 303 300 294 297 294 295 294 297 296 296 295 297 295 296 297 295 295 295 298 295 295 295 294 293 296 292 297 304 308 307 306 307 307 307 307 308 308 311 310
312 312 312 313 313 313 313 313 313 314 314 313 313 313 313 313 313 313 313 313 314 314 314 314 314 311 308 304 299 299 311 308 307 307 310 307 307 308 309 307 307 305 304 301 303 305 304 304 303 299 293 299 292 295 294 297 297 296 296 293 293 292 294 296 296 296 296 296 297 296 292 291 290 292 295 297 302 306 306 305 305 305 306 307 307 308 311 310
312 312 312 312 313 313 313 313 313 313 313 313 313 313 313 313 313 313 313 313 314 314 314 314 313 310 305 295 302 312 313 313 306 307 306 306 305 307 309 309 309 308 306 304 303 304 303 302 302 298 299 298 295 292 296 298 297 296 294 292 291 289 288 292 295 296 295 296 295 295 283 281 289 293 294 296 297 302 303 302 303 303 304 306 306 309 310 309
312 312 312 312 312 313 313 313 313 313 313 313 313 313 314 314 313 313 313 313 314 314 315 314 312 309 304 300 309 315 315 313 310 306 305 307 303 304 305 305 307 307 309 307 305 302 303 301 305 301 301 298 294 298 297 295 295 290 292 288 286 286 284 291 295 294 294 296 295 296 285 284 289 292 294 295 297 298 298 301 301 302 303 304 306 309 309 308
312 312 312 312 312 313 313 313 313 313 313 314 313 313 313 313 313 313 314 313 313 314 315 315 310 303 297 299 310 313 332 319 308 306 306 304 303 302 302 303 303 304 304 303 303 304 304 303 301 297 294 299 299 295 290 289 288 289 287 283 283 286 284 292 295 293 294 295 295 294 285 287 289 291 294 296 296 297 296 297 299 301 303 304 306 308 307 307
312 311 312 312 312 312 312 313 313 313 313 314 314 313 313 314 314 314 314 313 314 313 312 308 308 303 298 293 303 321 312 305 304 307 307 305 303 300 302 302 302 303 303 305 306 307 303 304 301 295 296 294 290 287 286 284 284 285 286 282 284 284 285 289 290 295 296 293 295 294 284 286 289 291 293 296 296 297 295 294 298 300 302 303 306 306 306 306
311 311 311 312 312 312 312 312 313 313 313 313 313 313 313 313 314 314 314 313 312 313 310 304 310 308 293 305 313 306 303 304 308 306 306 305 304 303 303 301 300 301 302 302 305 304 302 300 301 297 296 293 291 289 283 278 279 280 284 284 285 286 285 284 289 293 293 294 290 292 288 287 290 293 292 295 296 296 296 294 297 300 301 302 305 306 305 306
311 311 311 311 312 312 312 312 312 313 313 312 311 311 310 312 312 311 309 311 312 311 308 310 307 301 298 307 299 302 305 305 305 305 305 305 305 303 302 300 299 299 303 300 299 300 299 295 295 289 289 289 290 284 283 278 281 282 284 283 284 287 287 287 286 290 293 293 292 289 289 289 289 291 293 294 295 294 294 295 297 299 300 301 303 306 306 306
311 311 311 312 311 312 312 312 312 312 312 311 311 312 312 310 308 308 308 307 303 299 295 299 297 289 291 300 306 308 305 306 306 304 303 304 304 303 305 304 301 298 296 295 294 297 296 295 290 287 286 285 287 286 283 286 288 289 289 286 288 285 286 287 291 293 294 290 289 288 288 289 290 290 292 294 296 295 296 295 296 299 301 301 302 305 305 305
311 311 311 311 311 311 311 311 311 311 312 308 305 308 310 305 305 305 308 307 300 301 303 304 302 303 303 303 303 307 307 307 302 302 303 304 303 301 300 300 298 298 296 292 293 295 298 289 286 283 285 288 291 292 291 291 294 293 291 289 287 288 288 291 292 296 294 290 288 288 288 288 290 290 291 294 294 295 294 295 296 296 299 300 301 304 305 305
311 311 311 311 311 311 311 311 312 311 311 306 305 307 302 302 293 292 300 302 304 305 303 304 305 303 302 304 304 303 301 301 303 301 302 305 302 299 295 298 293 290 290 294 294 301 298 288 286 289 290 292 294 297 296 296 294 292 289 288 286 287 287 291 293 297 296 292 289 290 290 290 291 292 293 294 295 294 294 294 294 297 298 300 301 303 305 306
311 311 311 311 311 311 311 311 311 311 310 305 306 304 309 307 303 303 303 295 302 306 306 306 307 305 309 308 309 307 304 299 299 299 302 303 299 295 293 294 291 289 290 294 293 291 289 286 290 293 295 296 298 298 296 294 292 291 288 287 287 285 288 290 294 297 297 292 288 291 290 291 293 294 294 293 294 293 294 296 296 296 297 298 299 301 305 304
311 311 311 311 311 311 312 312 311 310 305 304 306 309 309 312 309 311 307 300 298 305 304 304 303 304 306 311 310 308 300 297 295 298 300 301 297 295 293 292 290 290 293 294 288 287 286 289 293 296 298 298 296 296 294 293 290 288 286 284 285 287 287 282 289 295 296 294 290 291 290 290 293 295 295 295 295 295 297 297 297 298 298 298 299 300 303 303
311 311 311 311 311 311 311 311 310 306 302 305 305 303 309 309 309 309 303 295 295 302 305 306 305 305 305 305 305 302 298 299 299 297 302 300 294 295 295 292 290 291 288 291 291 289 289 293 297 297 297 297 294 294 292 287 288 289 291 289 287 288 289 287 287 293 293 292 294 291 285 284 287 291 292 296 296 297 297 298 297 297 299 300 301 300 301 302
310 311 311 311 311 311 311 310 303 303 307 305 305 308 310 310 313 309 302 297 298 299 308 305 308 304 304 312 306 300 299 300 302 301 302 300 296 295 292 296 292 287 289 291 292 290 291 296 300 298 295 295 294 291 291 289 286 285 288 291 291 291 290 291 291 289 280 282 287 291 279 277 282 288 291 294 293 294 294 294 296 297 297 297 299 300 300 302
310 311 311 311 310 310 311 306 308 307 305 301 303 307 311 313 313 312 302 292 288 298 302 296 305 299 308 302 304 301 299 294 299 301 302 301 303 297 298 290 293 287 288 290 289 289 291 296 298 296 295 294 293 290 292 292 285 285 288 293 293 292 292 291 291 287 281 281 286 292 281 275 282 287 290 291 291 293 293 294 296 296 296 297 299 300 301 301
310 311 311 311 310 310 299 299 308 305 299 302 306 308 308 312 315 312 301 284 281 296 295 300 298 298 306 302 303 299 286 288 300 304 300 304 299 303 292 288 290 292 294 294 285 284 296 295 296 295 294 292 289 290 292 291 286 284 290 293 294 292 291 291 290 287 281 287 287 289 284 279 279 285 290 291 291 291 291 291 294 296 296 297 299 300 301 301
310 311 311 311 310 308 303 304 301 298 302 306 309 313 312 312 312 309 293 279 279 301 295 295 299 304 302 304 300 295 294 299 292 297 300 300 300 295 294 288 290 289 292 290 281 287 294 294 294 293 292 288 288 289 293 293 288 286 292 295 293 292 291 291 286 283 284 283 280 279 288 281 276 283 289 291 288 290 291 292 293 295 296 297 298 299 300 301
310 310 310 310 309 310 305 303 302 300 305 309 312 315 317 313 308 295 282 277 293 296 306 296 306 302 298 299 297 297 296 298 292 296 300 300 300 295 290 290 291 290 292 292 283 288 294 296 295 295 291 288 290 292 293 294 291 292 294 295 292 292 291 288 283 283 280 279 276 280 284 279 278 282 285 288 288 288 290 292 294 295 296 297 298 299 300 300
310 310 310 309 306 303 301 303 304 308 310 310 315 316 314 306 297 286 280 277 298 287 297 297 295 293 296 293 292 296 294 296 300 298 298 295 298 297 295 296 293 292 289 291 290 290 292 300 305 296 291 292 292 293 293 294 294 295 293 292 287 286 284 285 282 280 277 273 276 283 284 283 277 280 284 285 287 289 289 291 293 294 297 298 299 299 299 299
310 310 309 308 301 310 310 306 309 312 310 314 317 312 305 299 288 279 276 283 297 293 298 294 292 297 293 291 288 293 294 295 295 296 292 296 293 294 293 289 291 286 282 283 285 288 291 292 295 294 297 296 294 292 293 293 293 293 289 285 283 282 282 278 277 278 273 269 279 283 285 284 276 279 283 287 289 290 291 292 292 293 295 297 297 299 299 300
309 308 309 304 309 310 305 306 311 312 313 316 315 307 297 283 287 280 279 298 285 288 292 291 294 293 292 293 291 291 290 293 294 293 289 289 288 287 286 282 284 280 278 277 281 287 287 289 290 293 300 296 291 291 286 287 289 288 285 284 280 275 271 270 274 272 273 275 280 283 285 281 279 283 288 290 291 294 293 292 292 294 296 297 297 298 300 300
308 308 309 309 311 306 309 312 316 316 313 314 309 300 288 279 278 279 282 288 284 293 289 294 291 291 291 291 288 292 294 290 294 294 292 291 288 288 290 288 288 285 279 280 280 281 283 288 291 291 293 295 291 287 281 284 282 285 284 278 277 274 270 267 269 271 275 279 283 284 286 281 282 286 289 289 292 294 294 295 294 294 295 296 297 298 298 299
308 309 303 310 311 312 314 316 318 315 312 307 301 293 284 281 281 298 289 289 290 293 294 290 290 291 289 286 289 292 286 291 293 291 292 289 288 285 288 289 289 289 287 281 283 280 277 278 284 290 287 294 291 289 286 283 282 284 285 285 280 276 274 269 273 271 272 276 280 287 282 276 278 283 290 293 295 296 295 295 295 294 294 294 296 296 296 298
308 307 305 308 312 314 312 313 312 315 306 302 294 285 281 280 281 282 284 287 290 292 290 291 289 288 286 286 289 292 293 285 292 292 289 287 283 285 286 287 289 290 288 281 282 280 284 280 285 292 293 294 291 292 291 288 286 284 287 285 281 278 278 277 275 275 277 275 276 276 279 278 282 289 294 294 294 295 297 297 297 296 296 296 295 295 296 298
309 309 312 311 318 320 319 318 315 307 305 297 287 282 280 283 283 288 287 295 293 288 289 289 287 284 282 282 288 290 293 289 289 289 288 289 288 287 290 289 290 291 286 283 281 281 283 280 288 291 292 291 292 295 292 290 281 287 287 282 285 288 286 279 278 280 276 275 273 274 279 282 285 288 289 291 294 294 295 296 296 295 297 298 297 297 296 296
308 310 309 315 320 319 317 314 313 307 301 294 284 283 284 292 295 292 296 292 292 291 286 282 281 284 280 282 285 288 289 291 288 288 282 287 285 288 289 291 294 292 292 289 283 285 279 278 287 289 288 292 294 294 292 293 291 286 284 285 289 292 291 283 276 274 274 271 272 277 275 275 279 278 289 291 292 293 293 293 295 295 296 296 296 297 297 298
307 310 314 315 313 312 314 312 308 305 299 291 286 295 296 292 296 294 296 293 292 291 286 283 282 288 281 283 281 286 289 286 286 287 285 287 284 294 289 290 293 294 294 293 286 287 285 279 282 289 290 291 293 292 290 292 293 288 286 292 288 278 282 282 278 271 271 269 267 273 276 277 279 281 284 288 288 290 292 293 294 295 295 296 296 297 298 298
308 307 304 310 311 311 314 311 307 302 294 289 282 289 294 297 295 294 294 295 294 290 284 286 282 285 287 282 284 287 288 282 286 284 282 285 282 292 291 293 291 294 294 293 287 287 285 278 280 287 289 291 289 286 281 284 291 292 292 287 288 283 281 278 279 279 277 270 270 271 276 273 281 281 287 288 289 290 291 292 292 293 295 295 296 296 297 298
304 303 301 309 309 309 310 308 302 298 294 289 285 288 296 292 294 295 294 294 292 289 287 287 287 283 285 286 288 283 287 287 285 283 286 286 286 291 292 294 291 293 294 296 291 290 284 283 275 281 289 289 281 284 283 283 281 284 285 282 283 283 285 283 283 279 276 268 267 266 268 273 280 285 287 289 289 290 291 291 292 292 292 294 295 295 295 296
305 301 300 308 309 308 305 300 295 293 293 292 295 295 293 292 294 294 295 295 293 296 291 289 287 284 285 285 284 288 286 284 286 283 286 286 286 279 291 293 295 292 291 292 291 290 282 282 280 279 283 282 284 286 289 288 287 286 284 282 283 281 279 276 275 282 281 277 272 270 272 275 283 293 291 290 291 291 291 291 291 292 292 291 292 292 294 295
300 294 298 307 307 305 298 289 289 294 291 287 287 292 291 300 291 291 293 294 295 289 295 292 290 291 288 288 288 286 286 283 284 284 285 283 287 288 291 295 293 294 289 285 288 291 287 282 279 279 279 282 286 290 291 291 290 288 286 282 286 282 281 278 273 273 279 279 280 277 273 278 287 291 291 292 291 291 291 291 291 291 291 291 292 293 293 293
295 293 304 308 307 303 291 284 288 286 286 291 295 295 295 293 292 292 291 293 291 293 291 290 291 289 290 288 287 286 286 282 285 283 285 287 287 292 294 293 294 293 288 285 290 289 304 278 277 279 282 284 287 288 289 290 289 286 284 284 283 280 283 280 279 278 277 276 278 275 274 277 285 291 291 291 292 291 292 291 290 291 291 292 292 292 293 293
296 296 300 306 304 300 289 284 283 283 289 292 292 290 294 293 291 289 290 291 290 291 290 290 289 291 288 289 288 285 287 279 285 286 282 286 286 291 292 294 295 290 291 288 286 290 282 281 280 275 273 276 278 280 281 285 285 280 282 281 285 283 284 284 283 281 277 277 278 274 270 273 285 290 290 290 289 290 291 292 291 291 291 291 292 292 292 292
295 297 300 300 300 297 289 290 287 283 286 288 288 287 288 290 292 292 292 290 293 290 290 288 290 290 289 289 288 288 289 286 281 286 288 288 287 292 293 293 295 292 295 297 304 292 284 281 281 275 271 269 268 267 269 273 277 281 283 283 284 283 282 280 275 277 273 276 280 275 271 278 284 288 288 288 288 289 289 290 292 291 291 291 291 291 292 293
293 284 286 291 292 293 292 294 291 289 284 286 284 285 290 287 291 293 293 291 292 292 291 290 291 290 289 288 285 286 286 289 286 284 285 284 287 290 293 294 296 296 304 306 302 291 282 282 279 276 276 275 277 276 280 284 280 278 281 282 282 283 282 280 277 274 273 272 275 276 279 281 283 285 285 286 287 287 288 288 289 289 290 290 291 291 292 292
295 286 284 282 288 288 288 289 290 290 285 290 283 287 286 288 290 291 293 288 292 292 291 291 290 287 285 286 284 285 287 286 289 287 287 287 289 290 294 293 294 302 305 300 300 285 281 279 281 281 281 282 282 283 284 284 281 282 281 282 284 281 282 282 277 276 277 276 273 278 279 279 282 284 284 284 285 286 287 287 288 289 290 291 291 292 295 293
284 287 290 291 286 283 283 284 291 290 291 292 286 291 288 288 288 284 290 292 293 292 287 288 289 288 287 287 286 280 284 284 284 281 288 288 287 289 290 292 291 298 300 292 295 288 282 279 281 282 281 283 284 284 284 282 282 282 282 281 281 282 281 279 277 280 280 274 274 279 279 277 280 283 284 284 286 286 286 287 288 290 291 292 292 292 292 292
291 289 291 293 285 287 288 290 292 291 289 290 287 290 288 288 287 290 289 288 290 288 288 279 284 287 287 288 284 281 283 278 277 283 284 283 285 284 284 287 290 292 292 289 290 288 285 278 281 283 282 282 282 283 283 282 281 282 282 282 282 280 280 280 280 280 281 279 280 281 279 278 281 282 284 286 287 287 288 290 290 291 290 291 291 290 291 291
286 287 286 290 288 287 288 289 290 288 285 291 284 286 289 287 286 287 289 287 281 285 289 284 285 286 287 287 285 281 284 284 283 279 283 283 282 285 283 285 284 288 290 288 289 290 285 279 287 284 280 279 282 283 283 282 281 281 282 281 280 280 280 280 279 279 281 279 278 279 276 276 281 285 286 288 288 289 290 289 289 289 290 290 290 289 290 292
293 294 294 288 284 285 290 288 287 286 282 285 284 288 289 287 286 288 288 291 287 285 287 285 287 286 286 286 285 284 287 285 285 284 285 285 280 286 284 283 288 284 287 287 288 288 287 280 284 283 279 277 281 282 282 281 281 279 279 279 279 279 277 278 278 279 279 276 278 277 276 274 279 286 287 288 289 289 288 288 289 289 289 289 288 290 290 291
294 295 295 288 283 291 285 287 286 283 280 286 289 288 287 286 288 288 280 288 290 290 290 288 288 285 284 284 284 285 287 287 288 287 287 287 287 287 287 288 288 286 284 285 287 284 284 281 279 277 277 272 280 282 281 277 277 278 275 275 280 281 280 280 281 281 282 281 276 276 274 276 283 287 286 287 287 287 288 289 289 289 289 289 289 290 290 291
Wind_Speed
10 10 10 9 9 9 9 9 10 9 10 9 9 9 9 9 9 9 9 8 9 9 10 10 11 13 12 14 15 16 15 7 8 2 2 10 7 11 10 9 10 7 6 2 1 2 2 2 4 3 2 2 2 1 2 1 2 1 1 2 2 6 5 3 3 2 4 8 8 5 2 11 8 6 5 12 12 8 8 8 6 10 7 8 9 15 16 15
11 10 10 9 9 9 9 9 9 10 10 10 10 10 9 9 9 9 8 7 8 9 10 10 12 12 13 14 14 15 12 4 7 9 14 7 9 11 12 11 11 9 8 2 3 2 0 3 3 3 0 1 1 2 0 2 1 3 1 2 7 4 5 3 1 6 3 9 7 1 1 4 9 6 1 9 7 10 11 5 13 13 12 12 12 14 16 15
10 10 10 9 9 9 9 9 9 9 9 10 10 10 9 9 8 8 9 9 9 9 10 11 11 12 13 12 14 12 9 5 4 6 11 12 17 12 10 8 6 12 9 3 3 3 3 2 1 3 1 1 2 3 0 4 1 3 3 3 7 2 2 1 4 5 4 4 6 2 1 5 3 3 1 7 10 16 13 10 10 15 14 13 12 13 15 15
11 11 11 10 10 9 9 9 9 9 10 10 10 9 9 9 9 8 8 9 9 10 10 11 11 12 12 13 13 8 3 3 1 4 3 3 13 17 14 7 7 8 0 0 1 1 1 1 3 1 1 2 3 1 1 4 1 2 2 4 4 1 3 3 3 4 6 7 5 4 2 5 1 3 5 11 10 6 11 17 18 18 18 16 15 14 12 12
12 11 11 10 10 9 9 9 10 10 10 10 10 9 9 9 9 9 8 9 9 9 10 10 11 12 12 13 11 4 3 2 2 2 3 6 9 10 11 9 7 4 3 1 2 3 2 2 0 1 1 3 1 0 4 4 2 1 5 6 6 5 5 8 9 8 3 4 6 6 6 0 1 4 10 10 11 8 11 11 20 21 20 20 16 12 11 10
11 11 11 10 10 10 10 9 9 9 9 9 9 9 9 9 9 9 9 8 9 9 10 10 11 12 13 14 7 2 1 1 0 3 5 4 7 9 10 8 6 4 2 1 1 1 0 1 2 1 1 2 3 4 4 3 3 4 6 5 5 5 5 1 1 4 0 2 4 4 4 1 2 2 1 4 7 7 5 12 21 21 23 20 17 14 12 11
12 12 12 11 11 10 10 9 10 10 10 9 9 10 10 9 9 9 8 9 9 9 9 10 11 12 13 12 1 1 1 6 3 5 8 4 5 9 7 5 6 3 2 2 2 2 1 0 0 3 1 1 5 4 7 1 2 6 9 8 9 5 10 4 4 5 1 8 2 1 1 6 4 5 1 3 3 5 10 11 9 15 13 15 15 12 12 12
13 12 12 11 11 11 11 10 10 9 9 9 9 10 10 9 9 9 9 9 9 9 10 10 9 10 10 5 0 2 0 7 11 4 8 6 5 6 7 3 3 3 3 4 4 2 0 1 2 1 2 4 3 4 1 2 4 6 9 8 9 6 4 7 8 1 1 3 0 5 5 1 3 1 2 3 2 12 14 12 11 12 12 10 11 10 8 9
13 13 12 12 12 11 11 10 10 10 10 10 10 9 10 9 10 10 9 9 9 9 8 9 10 10 8 1 0 3 5 6 5 7 8 7 4 5 6 2 3 4 2 2 3 1 2 2 2 4 4 1 3 6 5 2 7 7 13 7 3 1 4 5 2 2 2 1 3 4 3 2 1 4 5 0 1 13 16 17 14 12 12 11 11 9 9 10
13 13 12 12 12 12 11 11 11 11 11 10 9 9 9 9 9 9 9 9 9 8 9 9 9 9 2 0 1 1 4 2 3 9 9 8 5 6 4 2 7 3 1 2 2 2 3 5 4 3 4 7 2 3 4 2 6 4 8 10 5 2 6 4 5 1 2 1 3 1 1 3 6 4 1 0 5 12 15 15 15 16 14 13 11 9 10 14
14 13 13 12 13 12 12 12 11 11 11 11 10 10 10 10 9 9 9 8 8 9 8 7 6 6 2 1 2 3 5 2 2 7 9 7 7 5 5 4 5 5 6 1 3 6 9 7 6 3 5 4 2 4 1 3 2 9 7 6 2 2 1 1 2 4 1 0 4 4 1 3 4 2 8 5 6 14 14 13 12 13 13 13 13 11 8 11
14 14 13 13 13 13 13 12 12 12 11 11 11 10 10 10 9 8 8 8 8 8 6 5 5 2 1 1 3 8 4 1 4 5 8 9 5 9 8 7 7 7 5 4 6 7 9 9 5 3 4 1 3 3 3 1 4 6 2 2 1 4 1 1 4 2 3 1 2 3 2 3 3 1 6 5 6 13 17 14 14 12 12 12 10 7 8 10
15 14 14 13 13 13 13 13 13 12 12 11 10 10 9 9 9 9 8 8 7 5 5 4 3 2 0 3 9 9 5 2 3 3 4 6 4 5 6 5 9 9 8 6 5 7 5 5 2 4 2 0 0 0 4 5 7 1 3 1 3 5 3 4 2 1 3 2 5 4 2 5 7 8 5 2 4 6 12 11 10 7 7 7 7 7 7 6
15 14 14 14 14 13 13 13 13 13 12 12 11 10 8 7 9 9 8 8 8 8 6 5 2 2 1 4 6 4 5 5 6 4 7 6 4 5 5 5 7 7 6 8 10 6 4 2 0 2 1 1 3 2 7 4 3 3 2 4 1 2 3 2 3 3 4 1 7 5 4 8 7 7 8 3 8 9 10 10 9 9 8 7 6 8 11 11
15 15 14 14 14 13 13 14 14 14 13 12 12 9 8 8 8 8 8 7 8 7 5 2 1 1 1 8 6 9 13 4 5 8 9 4 5 3 5 5 7 7 6 5 2 3 2 3 3 2 3 1 1 3 6 3 3 2 1 4 3 2 7 7 0 4 8 0 3 7 2 10 5 8 9 2 8 10 11 9 10 10 8 8 7 8 9 10
16 15 15 14 14 13 13 14 15 16 14 13 12 11 11 11 9 7 6 6 5 2 1 0 1 2 0 5 4 7 3 2 5 12 10 8 6 5 6 5 3 5 4 4 4 2 2 1 1 2 2 6 3 2 5 7 6 5 1 3 2 1 4 7 4 7 10 4 1 10 6 1 3 6 5 3 8 11 10 8 10 10 10 9 7 7 7 8
17 16 15 15 14 14 13 13 15 16 15 12 11 11 10 9 7 5 5 5 3 3 2 1 2 1 1 4 4 4 3 5 2 1 5 6 7 6 1 1 3 6 5 6 3 2 2 1 1 3 1 0 1 2 3 4 4 4 2 1 1 1 3 5 6 5 4 9 5 6 4 3 2 5 5 3 11 15 11 9 11 10 8 8 7 8 9 10
17 17 16 16 15 14 14 13 13 14 17 16 12 10 7 5 2 1 3 1 1 3 4 3 2 1 7 2 3 4 1 2 2 5 6 4 7 5 2 1 3 4 1 2 2 1 1 1 0 2 3 3 2 3 1 3 2 1 3 2 4 1 3 4 3 4 9 7 12 5 6 5 5 6 3 4 6 3 6 8 10 11 9 7 7 9 11 11
18 17 17 16 15 14 13 12 12 13 13 16 14 4 1 3 2 1 1 2 2 1 1 1 2 1 1 2 4 5 3 6 3 5 4 4 3 3 1 1 1 2 1 1 4 1 1 1 4 1 2 3 2 4 6 5 3 2 3 2 1 2 4 4 6 4 9 9 8 7 9 7 5 4 1 4 3 6 5 4 6 10 12 11 10 10 10 10
17 17 16 17 15 14 13 11 10 10 11 8 6 2 0 1 1 0 1 1 3 5 2 4 4 3 8 10 6 2 1 3 3 2 2 2 1 2 3 1 1 1 2 3 2 2 3 1 4 4 6 6 4 6 7 6 5 2 1 1 0 1 3 4 3 4 3 2 1 3 4 5 6 4 6 5 3 2 4 8 6 8 10 11 10 11 12 13
18 17 17 16 15 14 12 10 8 6 6 2 3 1 1 1 2 2 2 6 6 9 9 8 11 10 9 3 6 1 1 1 0 1 4 1 3 3 2 1 1 3 2 4 2 1 3 0 6 9 9 6 6 2 3 3 1 3 2 2 4 1 3 4 2 2 3 3 1 3 2 3 5 4 5 5 0 5 5 6 6 6 9 11 13 13 14 15
17 17 17 15 15 13 12 10 8 6 4 1 0 1 2 3 2 3 1 5 4 11 11 14 5 8 9 10 12 10 1 0 2 4 3 4 2 4 2 2 2 5 3 1 1 1 2 6 10 10 8 3 1 1 2 3 3 2 2 0 2 3 1 4 5 6 5 5 1 1 2 3 6 6 3 3 3 4 6 8 8 9 9 10 11 11 12 7
17 16 15 15 13 13 12 11 6 2 0 0 0 1 3 5 5 0 1 1 7 4 6 8 6 8 10 8 5 10 6 2 4 2 2 4 1 5 2 1 3 2 1 1 3 1 3 6 13 10 2 4 1 1 3 3 3 3 3 2 2 3 2 3 5 4 6 2 1 0 1 7 7 4 6 7 7 4 5 6 7 4 8 11 12 13 15 11
17 16 14 13 13 12 12 9 8 1 3 4 2 5 4 4 5 3 1 2 3 6 5 6 6 4 6 5 3 4 4 2 2 3 3 5 6 4 1 4 2 0 4 3 5 7 9 11 4 2 5 6 6 2 2 1 1 1 1 1 1 2 2 4 3 3 4 4 1 4 6 6 3 4 5 7 1 2 4 7 8 5 5 6 5 3 6 12
16 16 14 12 11 12 11 11 1 4 3 1 3 5 5 5 1 3 2 3 2 5 4 3 3 2 5 0 1 2 1 0 4 2 4 6 3 2 2 2 2 4 6 6 4 5 8 12 1 3 5 5 5 2 3 4 1 3 3 5 5 4 3 2 1 1 3 3 2 2 3 2 3 3 7 9 3 4 2 4 11 11 6 4 6 10 9 8
16 15 13 11 10 10 10 2 1 3 1 2 3 3 1 1 3 1 3 2 2 4 1 3 1 3 1 2 1 3 3 2 5 4 5 7 4 3 0 2 1 3 4 1 4 3 8 3 6 6 7 5 3 3 3 4 2 1 5 4 5 4 3 1 1 3 1 4 3 0 2 7 5 6 5 6 3 7 4 4 11 10 6 7 9 12 11 10
15 13 11 10 9 10 2 1 2 5 2 2 5 4 3 2 1 2 2 3 1 2 2 1 0 1 1 2 2 3 1 4 2 2 2 1 3 1 3 6 3 1 1 1 4 5 0 1 3 3 3 3 3 1 1 6 5 2 3 3 2 0 1 2 2 5 4 1 2 3 3 3 5 7 6 4 3 7 8 7 9 9 7 10 10 10 10 9
13 12 10 9 6 5 0 1 5 3 1 2 4 6 5 3 2 3 3 1 0 1 1 1 2 1 1 1 5 2 3 2 2 2 1 3 3 2 1 3 4 4 2 2 2 6 0 3 3 2 2 2 4 4 3 4 4 4 3 4 3 1 2 1 5 4 1 1 6 5 1 1 3 7 5 1 4 7 9 10 9 11 9 11 11 10 10 10
12 9 8 6 4 2 1 1 1 2 3 5 5 5 4 2 4 5 3 1 1 0 1 1 1 1 1 2 1 1 1 1 3 5 2 2 0 4 1 4 2 2 2 3 3 4 2 5 6 6 5 5 4 4 5 8 1 4 3 1 2 3 2 2 2 2 3 4 6 6 1 1 7 8 6 0 1 7 8 9 11 11 11 12 13 11 10 8
11 8 6 5 1 3 0 1 3 7 5 5 5 5 2 3 2 3 1 1 0 1 1 0 2 2 2 2 1 1 4 2 1 0 0 2 0 2 2 1 1 0 2 1 2 8 5 5 6 4 5 6 4 6 5 6 7 1 3 2 1 6 5 2 5 3 4 1 6 4 1 1 4 8 8 3 4 4 5 7 6 5 8 12 12 11 9 8
10 6 4 3 0 0 1 1 7 6 5 4 6 3 2 3 2 2 1 3 0 2 1 0 3 1 3 2 3 2 2 1 1 2 1 0 1 1 1 2 3 3 3 3 3 6 5 1 1 2 4 2 3 1 1 3 3 3 0 2 1 5 6 4 3 4 2 3 7 2 3 4 1 9 6 6 5 6 7 10 12 5 9 11 8 7 8 8
10 6 5 4 3 1 2 3 3 3 4 4 5 3 2 1 4 0 1 3 1 4 1 1 1 0 4 3 4 2 3 1 3 4 6 5 4 3 3 4 2 1 4 3 7 3 2 5 2 4 3 10 1 2 7 4 3 6 5 6 5 2 3 2 3 2 2 6 6 0 4 1 5 10 11 9 9 11 4 7 8 9 10 11 8 9 10 10
12 8 6 7 3 1 5 6 6 6 5 5 3 4 6 3 0 3 2 2 0 0 3 1 3 2 1 2 3 4 6 7 3 8 7 1 3 4 2 3 7 6 3 3 2 2 6 3 3 2 4 2 6 3 1 4 1 6 5 3 4 1 1 1 4 1 3 5 5 2 2 3 5 8 6 8 10 8 7 9 8 6 7 10 12 12 10 8
12 5 2 3 6 6 6 4 7 4 5 4 4 6 6 2 2 3 0 1 2 2 2 3 5 6 4 2 3 5 3 4 8 3 5 3 4 2 3 4 4 0 2 0 2 2 1 4 5 2 2 2 1 7 9 6 4 6 3 7 7 6 3 3 2 3 6 8 5 2 1 4 0 5 2 6 8 5 7 9 0 1 2 4 2 1 3 4
13 4 3 3 2 6 9 9 5 1 2 6 6 4 2 2 2 2 2 2 1 1 4 3 3 4 5 3 3 3 2 4 1 3 5 3 3 2 3 5 5 5 2 1 4 1 6 4 5 3 4 0 1 3 2 4 1 2 3 6 6 4 6 4 6 5 2 1 3 3 3 4 5 4 9 7 8 4 4 13 10 9 12 12 6 2 2 6
5 0 3 1 0 4 5 4 1 3 6 5 6 2 1 3 1 0 0 1 1 2 5 6 4 5 1 4 3 9 8 3 5 2 1 2 3 3 4 4 5 11 7 8 5 4 1 3 3 5 5 6 4 4 2 3 1 2 2 2 7 1 5 1 2 0 4 2 5 1 3 6 6 5 4 8 10 9 7 7 8 7 11 12 10 11 10 9
5 3 2 2 2 4 2 3 4 5 6 6 4 1 5 2 1 0 3 2 1 1 4 4 3 1 2 4 1 5 8 5 6 5 5 2 4 2 1 1 2 1 4 6 2 2 5 3 4 4 1 2 1 2 2 0 3 4 1 6 3 2 5 2 2 2 0 3 6 0 3 3 2 4 4 9 12 8 10 7 8 9 11 12 8 9 9 9
2 2 1 1 2 1 4 3 5 4 3 4 1 6 1 1 2 2 1 0 1 2 2 1 3 3 1 1 5 3 5 3 6 4 4 1 1 1 3 2 4 4 2 5 4 2 4 2 3 1 1 2 4 5 6 3 6 5 5 3 1 1 6 2 2 1 2 2 3 2 2 3 4 5 3 5 5 6 8 9 14 14 12 10 9 10 9 10
1 1 3 4 1 0 3 5 5 4 3 2 1 1 2 2 0 0 2 2 0 1 2 0 1 2 1 2 2 1 0 2 3 3 2 2 2 2 5 2 3 8 9 3 3 0 1 2 4 2 3 1 3 3 1 7 4 4 1 5 2 4 4 4 7 3 4 3 1 5 2 4 4 2 3 2 1 7 7 9 8 9 10 11 10 10 9 8
4 3 1 2 1 2 4 4 3 4 3 1 2 2 2 0 1 0 1 3 0 1 1 1 1 1 1 3 0 3 1 1 1 3 0 2 2 4 4 5 1 6 8 8 3 1 1 2 2 4 3 2 3 0 2 2 2 8 9 4 4 1 3 3 1 2 4 3 5 3 2 4 4 4 5 3 2 6 7 7 5 5 5 5 6 8 8 9
1 1 3 3 3 2 4 4 2 1 1 2 1 1 3 3 3 4 7 6 2 2 2 3 1 1 2 2 6 1 1 3 0 0 1 3 2 4 2 3 3 4 2 8 9 5 2 0 3 2 3 3 5 2 3 2 3 1 1 3 4 5 6 3 8 2 1 3 2 3 8 6 6 3 6 5 1 5 4 7 6 5 4 4 4 5 6 8
2 1 3 2 3 3 3 4 1 1 2 2 3 1 2 7 4 5 5 6 2 2 1 1 3 0 1 0 1 2 2 2 1 2 1 1 2 1 3 5 5 0 3 0 1 3 3 2 3 1 3 4 5 8 3 1 2 3 4 1 0 1 2 1 2 5 1 2 2 4 2 10 5 5 4 4 4 4 3 5 5 4 4 4 3 4 4 4
2 3 6 7 3 2 3 2 1 3 1 1 4 0 2 1 1 2 4 4 4 1 1 1 0 1 2 1 2 3 3 1 2 2 2 0 1 0 5 7 8 6 4 0 1 1 5 2 1 3 4 4 7 4 3 8 3 4 3 3 4 2 1 1 3 4 2 2 0 1 2 8 4 1 3 5 3 3 2 4 5 5 5 5 6 7 7 11
1 2 6 3 3 3 6 1 5 5 1 3 1 3 2 1 3 5 2 4 1 1 0 0 2 1 2 2 0 1 1 2 4 4 3 1 1 4 9 11 9 4 1 3 2 2 2 2 3 2 4 7 7 6 4 6 6 2 1 2 1 1 2 3 0 1 1 4 5 6 7 6 5 1 3 5 4 4 2 2 3 5 5 6 8 7 7 7
2 2 3 6 8 8 5 0 1 0 4 4 2 6 5 2 2 3 2 4 2 1 0 0 1 0 1 0 1 1 0 2 1 3 1 1 3 1 7 10 8 5 4 5 7 3 2 2 1 2 3 5 3 2 3 2 4 3 1 1 0 2 3 6 2 3 1 3 2 1 5 8 7 6 6 8 9 4 1 1 2 4 4 6 6 8 9 9
2 2 5 7 7 7 3 1 5 2 2 5 6 4 2 4 2 5 3 3 1 4 0 1 0 1 0 4 3 2 3 1 1 2 3 3 4 3 8 11 5 2 9 8 5 4 1 1 3 6 7 8 8 5 3 1 1 3 7 5 5 3 2 4 3 2 4 3 3 5 4 10 13 10 6 8 8 7 9 8 6 4 4 4 5 6 6 6
0 2 1 5 7 5 1 2 4 3 3 1 0 1 3 2 2 3 2 1 4 2 2 1 2 4 2 3 1 1 2 4 6 4 4 2 3 3 9 7 6 7 7 4 5 3 1 0 3 5 6 7 8 7 4 3 6 6 7 13 10 3 2 1 3 8 5 2 9 3 5 2 10 9 5 5 6 6 7 7 7 7 6 5 3 4 6 7
3 1 2 1 2 3 7 6 7 7 6 1 2 1 3 4 3 1 3 2 2 4 2 3 9 10 4 2 0 1 3 2 2 3 4 2 5 9 9 7 4 10 9 3 2 2 0 2 3 3 4 5 8 8 7 5 5 6 8 7 8 4 1 5 5 6 5 4 9 8 4 4 7 5 5 5 4 3 5 5 3 1 4 7 9 9 8 8
2 1 1 3 2 1 2 6 5 3 6 4 2 1 2 2 5 1 1 3 3 4 5 2 5 7 6 4 3 1 1 2 4 1 2 5 4 4 5 5 3 9 9 6 5 0 1 2 4 5 6 3 4 6 6 8 5 6 8 7 3 3 6 5 5 4 6 6 8 9 6 8 5 4 4 4 3 4 3 1 4 9 7 6 7 7 7 7
4 2 5 4 1 2 2 3 3 5 5 4 3 3 3 5 4 4 2 2 1 2 3 5 3 4 4 6 3 3 0 2 1 1 2 2 6 1 2 3 3 4 6 5 3 6 2 5 2 1 1 3 3 6 5 7 8 8 9 3 2 3 4 5 3 5 4 4 4 3 3 5 3 2 1 1 3 3 6 8 6 5 6 6 5 5 6 6
2 1 1 2 4 3 2 2 3 3 2 6 5 4 4 7 4 4 1 0 4 1 1 3 1 3 2 4 4 2 1 2 3 3 4 1 2 2 0 4 4 8 10 2 1 4 4 4 2 2 4 4 2 3 7 4 5 6 4 1 3 5 7 4 3 2 0 4 3 0 4 6 2 4 3 1 3 6 5 4 5 5 4 4 4 4 4 5
2 2 0 1 1 1 3 2 3 4 4 2 2 4 3 4 6 6 3 2 4 5 3 2 1 3 2 4 1 3 5 4 3 3 3 4 4 4 5 5 4 6 2 4 1 1 2 0 1 1 3 3 6 6 3 2 5 12 8 4 8 9 5 1 1 1 2 2 1 1 5 2 1 2 3 6 4 4 4 4 3 4 3 3 4 4 4 4
Wind_Direction
331 334 333 327 322 322 315 315 313 312 314 315 316 314 313 312 314 311 312 313 314 319 323 326 328 330 331 332 332 332 336 336 323 326 271 241 203 227 253 254 265 244 185 204 294 10 329 337 291 283 299 26 261 346 241 210 176 94 199 176 268 224 242 232 239 261 306 314 291 4 65 112 98 98 120 73 58 82 87 86 70 69 73 109 115 122 129 130
331 330 329 323 319 317 318 324 324 317 315 314 314 315 316 316 312 310 313 314 317 318 325 328 329 327 328 330 332 336 338 312 298 284 244 217 184 217 231 251 254 229 145 205 205 202 224 294 291 337 285 274 285 236 153 280 154 139 226 120 223 219 230 164 259 286 298 282 264 223 284 103 138 132 197 96 98 89 78 78 101 89 86 87 104 120 126 132
332 330 328 326 322 322 321 316 310 308 308 307 310 312 316 314 308 306 310 317 319 326 326 325 325 324 326 328 331 342 346 320 296 265 268 222 222 218 230 257 229 162 169 177 205 178 181 221 318 359 236 258 284 238 3 257 7 238 158 246 239 215 274 352 256 284 269 264 289 38 325 119 207 109 143 116 136 115 118 113 103 116 123 125 132 134 136 137
336 333 331 328 323 318 312 309 309 310 309 311 312 313 316 312 309 307 309 312 317 320 321 321 320 322 323 323 330 341 328 307 292 258 268 262 203 214 219 201 169 169 236 306 162 164 202 308 318 224 273 216 283 197 266 258 153 274 128 202 234 202 302 271 285 265 279 30 337 4 3 105 181 121 113 137 100 120 147 147 142 143 142 144 150 147 143 136
337 335 327 326 320 318 312 309 312 315 314 311 313 308 305 305 306 308 313 313 315 319 321 321 321 319 322 321 322 341 333 52 282 249 275 316 205 186 174 176 166 154 176 38 24 311 238 241 53 344 184 265 258 4 243 245 210 309 219 219 215 248 279 251 254 272 270 32 28 6 28 284 347 65 131 139 141 186 176 171 144 147 146 150 156 154 140 130
336 333 330 326 324 320 315 314 308 304 301 303 304 305 305 310 312 310 312 314 318 319 320 321 320 322 322 319 308 305 52 76 296 282 62 44 126 142 151 163 157 137 112 124 179 222 76 322 135 191 264 178 216 183 264 212 161 249 283 277 242 228 224 288 243 257 95 50 53 4 327 311 36 76 154 127 158 188 172 170 153 153 158 156 147 148 144 142
339 335 334 327 323 318 315 310 309 309 310 307 307 307 306 305 305 306 312 315 315 317 321 320 321 324 329 319 237 113 155 265 312 248 119 121 137 139 141 143 143 113 115 144 205 198 125 218 143 235 294 280 263 212 242 267 186 197 244 252 258 214 231 263 285 262 46 94 58 254 35 47 334 88 299 66 284 212 165 151 150 143 132 137 145 156 145 147
339 337 332 329 325 322 318 315 311 309 305 302 300 303 304 302 304 307 311 313 312 311 315 318 321 326 343 343 35 323 66 255 251 183 145 132 119 127 120 86 122 116 147 196 173 152 60 259 237 312 219 209 219 179 207 196 217 215 251 243 247 234 222 208 220 141 30 103 77 54 36 319 24 118 44 358 125 116 118 118 122 122 126 134 143 149 131 137
338 337 335 332 328 324 319 315 311 310 310 308 304 302 302 304 304 305 306 303 304 305 309 317 318 323 329 311 42 355 268 233 214 151 140 137 157 127 129 149 163 148 183 194 196 134 117 268 232 182 269 288 262 260 271 264 293 228 228 231 257 207 198 194 164 131 182 118 63 43 340 315 316 40 62 323 186 120 123 126 129 129 135 148 160 145 139 143
337 335 334 331 328 325 322 319 315 311 308 303 301 296 295 293 293 293 297 298 297 300 306 315 321 331 341 153 333 21 261 249 136 143 149 147 147 148 211 199 159 164 172 231 108 194 206 231 186 235 218 262 255 261 301 205 246 222 233 227 220 229 177 239 127 243 174 113 108 106 327 310 334 73 103 22 156 122 124 133 143 145 157 166 166 156 153 148
334 333 332 330 329 327 323 319 315 311 306 303 301 298 293 292 292 292 292 291 294 297 304 310 325 356 318 335 106 245 251 353 133 144 157 150 147 163 209 206 180 169 189 239 205 197 225 243 251 292 282 228 11 289 229 228 306 282 238 188 126 295 79 151 115 143 104 339 114 114 228 302 316 92 157 181 170 134 133 144 153 161 166 170 174 160 162 154
335 332 330 329 328 325 324 322 320 317 312 307 302 297 292 288 287 283 281 284 294 300 297 304 321 306 263 238 210 234 259 136 144 168 171 156 184 207 198 193 181 191 157 204 239 224 222 233 245 219 227 15 316 326 301 245 319 295 129 214 327 15 29 207 166 189 126 278 127 128 35 342 344 216 180 184 173 149 149 163 170 174 169 171 172 136 153 158
332 330 329 329 326 325 325 323 321 317 314 309 303 298 292 286 280 275 276 281 281 280 295 301 318 285 322 350 223 228 266 305 154 187 221 197 216 227 216 189 197 200 186 188 239 243 217 213 206 341 248 99 198 117 282 346 288 347 3 146 350 21 349 260 321 208 115 223 125 129 304 265 266 253 236 132 178 164 147 162 174 170 167 170 154 147 146 149
330 330 329 326 327 325 322 322 321 320 317 312 307 300 291 280 277 276 273 265 266 268 280 280 288 251 151 251 271 253 214 193 208 206 234 209 208 259 244 225 210 219 211 212 238 251 276 292 272 229 216 117 297 288 336 327 352 340 279 48 354 2 266 277 171 213 167 166 132 108 186 269 264 280 289 172 165 164 166 183 172 166 175 167 157 158 166 172
330 328 324 325 325 323 322 322 320 318 317 312 305 296 280 275 273 272 264 263 256 263 259 265 198 64 349 262 270 271 272 151 176 212 217 183 197 287 272 282 277 255 225 212 247 258 231 12 19 26 311 299 6 11 323 0 339 356 38 301 333 158 278 286 110 164 196 65 179 112 207 240 254 272 273 286 173 170 174 188 177 171 172 171 173 169 163 166
329 324 324 325 322 321 321 322 321 318 315 312 304 292 282 275 269 259 247 246 253 231 204 204 195 186 136 302 275 317 333 145 221 203 210 191 189 210 227 243 273 278 294 293 226 275 342 40 268 200 297 355 38 45 359 19 339 349 80 254 282 258 269 353 289 207 200 104 276 167 206 334 305 258 272 274 183 183 173 176 185 174 174 173 169 164 159 152
326 324 324 321 321 321 323 324 324 319 315 311 302 291 281 273 277 244 238 229 247 202 209 217 125 195 313 243 323 312 252 234 204 130 176 208 185 212 334 316 265 259 275 283 333 7 324 28 276 4 2 208 147 91 32 12 334 320 15 267 221 243 309 296 289 293 197 145 206 202 162 210 210 237 268 282 195 175 178 165 183 172 174 180 167 163 166 169
325 323 322 319 319 321 323 326 326 322 319 314 312 286 272 260 155 167 49 118 186 190 229 272 280 4 278 318 278 233 205 227 169 204 204 218 193 206 176 268 270 244 215 314 339 257 266 317 22 216 356 3 43 56 91 253 213 243 327 9 331 320 173 230 299 275 149 188 170 205 211 230 267 292 308 195 122 115 166 152 169 174 177 174 176 178 176 174
323 322 320 318 318 319 322 324 322 323 322 315 307 315 199 131 167 254 146 188 103 5 11 181 133 83 107 237 266 297 247 210 133 148 236 216 227 191 179 193 228 206 280 76 274 38 300 342 23 33 283 317 286 151 166 210 162 200 181 178 210 11 318 318 264 285 185 172 168 167 196 230 260 291 299 312 359 133 175 225 151 185 183 181 180 183 179 180
323 319 318 318 319 320 320 317 316 320 324 334 355 35 78 32 30 354 320 338 229 204 196 191 209 260 310 287 264 224 277 74 92 270 150 219 105 181 229 80 7 50 99 209 269 282 150 175 211 214 221 222 247 206 189 197 171 207 107 108 224 34 283 273 310 345 355 61 41 197 225 221 239 238 270 269 284 317 249 199 187 182 187 187 185 184 186 184
320 319 315 317 318 318 315 312 311 316 308 333 309 17 82 313 45 323 258 227 226 231 242 239 195 216 237 317 334 8 174 274 326 221 227 174 106 107 261 172 37 346 244 181 162 260 71 215 248 225 221 197 212 187 114 89 77 124 94 24 327 37 348 289 293 326 339 134 356 44 33 320 283 289 285 294 148 247 232 239 236 188 194 193 188 188 189 195
319 314 315 314 317 315 311 308 307 309 297 316 67 4 259 239 202 198 122 313 293 228 233 252 234 253 254 250 250 261 179 81 291 278 290 134 200 143 285 177 167 221 297 328 10 2 198 219 242 234 221 180 174 187 153 133 98 60 102 121 352 299 248 295 329 343 350 83 255 26 42 281 278 272 246 254 251 240 213 213 216 189 190 196 199 195 190 177
316 313 312 315 316 315 311 304 303 318 7 97 183 246 256 254 310 227 86 252 280 236 218 237 252 239 264 256 239 233 250 206 251 275 233 130 95 186 153 134 213 238 15 106 192 158 272 270 243 241 122 146 127 123 78 67 64 104 53 44 268 236 64 312 305 342 350 71 288 229 22 289 293 280 256 211 197 260 265 225 243 228 193 191 195 193 190 181
315 312 313 313 319 314 305 310 300 50 203 211 229 235 246 313 294 49 77 220 284 307 213 219 203 228 242 253 230 169 163 240 181 258 201 143 158 199 152 179 187 254 254 217 195 178 218 240 250 144 173 176 190 167 91 77 334 304 157 166 233 293 229 154 245 324 328 329 113 47 9 340 307 295 317 303 141 194 263 272 277 246 225 233 216 183 188 174
313 312 313 317 323 310 308 319 333 212 181 161 259 251 265 267 250 124 89 329 355 279 264 254 174 220 236 46 292 124 231 327 219 194 186 139 143 85 230 195 135 236 227 225 181 221 271 259 231 158 191 176 160 195 180 128 290 322 250 190 222 236 253 263 270 33 25 337 320 82 2 298 287 287 241 253 324 310 271 220 247 245 215 190 195 202 205 199
312 310 313 322 316 311 308 353 324 305 262 232 223 293 307 293 341 110 89 75 321 265 355 276 72 267 147 213 136 172 80 293 235 209 159 180 155 144 64 296 172 271 258 246 197 197 215 261 171 194 195 181 156 166 228 131 181 111 270 192 213 223 215 236 131 75 162 211 281 89 187 271 312 282 266 280 328 288 295 212 247 247 208 196 204 203 204 181
312 309 310 316 317 318 3 307 288 316 56 315 325 326 325 8 358 66 66 340 24 254 185 251 49 262 58 215 149 61 35 269 322 20 49 192 137 181 176 252 350 317 128 58 41 301 354 11 80 81 123 124 91 206 245 131 107 235 238 166 219 227 272 257 144 170 228 249 309 29 125 212 299 284 244 275 283 282 292 271 252 249 208 204 207 207 204 186
311 308 310 313 321 2 127 328 348 357 217 272 298 325 317 303 45 51 79 43 16 254 241 251 202 359 358 179 97 121 212 186 84 214 221 250 110 353 229 235 215 230 278 69 283 257 249 282 177 134 125 127 181 209 211 141 131 220 251 199 242 195 182 139 97 111 157 104 298 321 318 1 270 265 293 276 297 294 280 272 251 241 215 210 211 207 202 192
310 306 302 309 316 260 110 116 114 258 247 302 295 308 305 36 84 104 119 118 268 233 295 328 270 62 291 49 347 153 239 205 164 233 252 39 223 141 211 249 187 230 194 153 210 285 306 208 221 167 137 194 227 227 170 146 112 279 192 123 65 84 102 129 109 80 3 50 291 284 249 247 279 276 311 354 239 266 260 270 264 235 217 210 217 213 208 201
307 298 294 303 86 62 356 348 247 239 284 291 298 315 19 57 36 45 9 288 219 300 206 281 21 231 127 124 300 213 232 250 190 331 79 163 245 54 223 155 136 301 341 336 174 218 237 267 190 115 183 201 184 222 159 172 212 237 118 206 24 24 5 10 67 95 56 13 271 247 243 132 303 264 234 229 226 221 264 279 264 244 220 223 220 210 207 203
304 281 282 166 118 265 356 343 255 246 255 293 326 20 67 36 103 98 109 228 103 260 42 98 234 26 107 175 256 280 229 202 288 146 245 7 329 4 25 358 14 32 24 7 322 297 331 346 98 251 169 171 144 208 221 173 198 110 78 121 44 333 6 29 343 41 80 277 266 30 165 111 188 290 278 232 281 280 255 266 281 216 213 223 221 217 216 215
304 278 220 173 214 61 171 238 256 307 315 344 14 48 70 33 13 101 226 308 64 274 30 309 319 254 241 225 195 214 204 270 159 181 182 197 194 163 213 173 190 46 329 259 270 354 327 261 243 305 241 158 172 219 298 37 44 77 65 51 119 264 36 341 10 342 201 218 249 184 132 49 247 234 260 294 287 290 251 224 230 206 213 209 209 205 215 214
309 284 233 213 200 226 227 245 302 307 344 25 43 48 63 94 162 262 287 317 254 278 339 2 323 326 258 182 241 232 217 233 201 210 168 219 160 255 294 165 186 144 212 279 231 10 284 292 320 286 332 230 117 165 263 343 7 113 146 126 89 97 58 274 269 218 300 295 261 254 191 241 243 284 245 236 259 249 280 253 234 236 218 208 201 199 201 202
307 279 253 205 187 211 251 260 269 342 354 36 68 34 50 49 270 253 306 322 354 324 344 345 319 350 32 22 282 333 320 267 189 211 158 186 171 224 265 258 163 133 140 328 210 191 348 334 307 161 272 238 132 183 175 184 157 188 164 144 171 144 161 226 202 211 217 212 279 295 94 235 89 247 239 217 248 313 296 297 354 189 254 252 270 66 136 172
311 240 211 288 277 251 233 247 272 346 76 49 50 81 98 244 231 262 303 295 309 304 2 323 23 16 328 7 304 4 298 320 320 149 189 120 234 211 192 231 218 155 145 113 261 84 204 206 247 225 218 162 19 303 130 113 66 268 145 84 75 203 130 177 200 168 219 294 337 327 214 194 201 263 301 341 335 54 343 10 12 25 29 24 21 44 185 192
350 271 137 282 227 268 210 219 178 84 68 57 74 48 183 199 253 231 215 230 310 358 320 4 47 28 317 330 328 6 347 30 305 64 326 183 217 183 223 201 197 189 152 182 203 197 139 243 251 301 60 77 20 352 283 133 179 262 93 168 214 153 121 199 338 183 96 55 253 195 332 309 303 328 307 9 34 27 22 28 21 31 48 47 52 54 34 10
19 338 18 283 243 259 239 157 119 69 61 91 86 256 211 284 264 33 308 42 324 53 39 50 311 56 339 318 303 1 329 13 345 7 313 307 334 321 307 314 317 179 203 145 294 177 140 237 296 42 359 106 247 157 31 314 151 87 234 241 259 121 118 121 249 316 57 190 261 14 219 296 25 287 329 6 50 17 36 18 32 40 56 56 38 44 47 37
332 346 259 283 244 161 130 113 75 48 79 77 64 228 275 100 341 99 207 353 13 40 85 112 275 71 311 12 309 13 316 44 309 15 303 289 260 270 32 343 338 10 287 169 137 276 109 310 293 292 223 284 335 40 352 343 52 70 312 224 137 176 294 330 56 309 279 273 264 315 247 257 180 248 357 26 49 28 28 23 35 27 31 39 33 34 27 34
302 75 350 260 267 95 106 80 67 77 63 46 269 14 266 192 178 159 280 324 155 104 78 241 149 296 34 313 247 274 7 7 318 338 354 302 10 328 35 343 318 339 334 61 81 238 58 161 298 298 42 269 31 61 9 306 337 151 132 27 279 105 182 182 198 198 132 242 70 287 20 253 226 209 173 84 352 60 56 47 52 42 33 33 16 19 30 36
20 29 298 260 292 67 85 68 65 41 71 189 241 214 243 254 291 311 13 75 302 83 237 234 211 269 329 222 130 308 287 134 320 280 168 263 353 306 22 349 8 335 26 33 90 56 54 106 208 279 272 15 359 3 147 127 56 345 359 335 2 299 240 147 319 129 167 176 181 188 296 276 260 212 163 150 88 79 73 74 73 67 52 34 27 26 13 17
316 109 269 285 312 46 45 50 55 93 147 259 145 260 341 338 341 344 349 50 49 226 180 197 181 207 222 3 343 293 302 340 271 12 224 316 70 338 312 357 316 6 20 25 41 354 55 43 200 306 351 296 240 217 143 131 154 160 178 259 279 329 339 5 287 343 50 105 210 140 241 265 263 229 163 127 131 76 74 81 58 46 49 40 27 21 21 12
41 38 257 334 7 56 74 35 310 232 98 72 320 339 342 313 353 344 348 350 16 17 335 65 25 353 284 310 202 328 351 309 296 4 282 84 287 176 285 349 16 12 90 117 161 239 145 143 95 173 199 226 264 295 279 74 140 171 149 260 87 143 78 131 245 273 356 264 128 150 180 253 232 211 139 114 84 94 94 84 72 45 17 17 26 25 19 35
40 245 252 312 286 92 67 12 314 17 18 312 323 72 320 356 314 323 3 356 339 28 26 41 230 23 300 42 346 359 35 299 248 252 246 313 315 224 293 332 331 342 88 320 3 258 81 74 30 280 297 303 324 297 1 32 48 35 11 55 78 45 115 158 213 216 216 267 265 303 237 261 276 261 129 90 73 68 32 54 61 20 7 16 12 13 13 7
275 270 314 304 35 92 80 39 342 340 323 311 346 312 305 302 349 347 4 326 320 319 97 249 330 54 271 43 70 352 12 19 290 359 331 323 325 293 36 11 2 334 9 223 136 262 20 298 103 16 356 345 346 351 358 344 43 66 295 307 115 100 117 218 109 119 14 231 171 133 235 268 270 327 339 74 116 101 59 320 33 35 3 3 0 8 13 15
296 284 250 308 356 52 84 153 119 25 344 342 1 349 345 345 335 302 310 307 299 184 140 318 176 283 35 73 36 208 230 159 282 282 304 295 272 312 28 5 10 323 208 218 152 132 190 217 102 228 249 269 285 306 272 288 287 271 199 318 54 48 358 32 17 353 79 275 119 165 257 261 277 321 348 7 358 13 151 160 146 78 52 11 9 5 9 24
40 11 302 335 10 21 63 103 86 69 5 352 360 293 327 324 327 316 19 280 26 1 75 217 310 86 42 29 8 13 325 344 345 271 349 324 331 344 359 328 8 59 352 3 15 57 112 70 126 152 161 194 203 207 236 145 336 307 285 277 284 85 97 97 99 115 209 245 289 244 218 285 298 310 15 354 349 331 335 346 27 71 44 34 30 30 27 25
22 60 359 332 335 32 64 14 37 45 335 256 289 283 309 291 273 309 59 339 23 43 12 352 9 30 299 35 318 347 356 350 350 47 11 357 301 293 303 294 352 19 9 358 340 79 59 2 265 158 189 196 188 195 227 219 250 261 279 287 299 120 124 233 224 249 181 65 289 242 220 230 280 301 327 335 321 322 335 350 11 26 29 33 30 42 32 28
52 287 91 222 148 291 359 338 11 344 322 335 247 218 269 305 326 315 313 308 66 30 72 325 34 6 7 91 137 50 334 351 10 5 324 18 342 338 347 338 7 15 8 337 20 73 125 208 267 161 244 196 190 203 205 217 225 236 249 258 268 278 187 240 230 216 136 171 232 262 185 208 265 284 330 327 307 301 356 14 9 351 16 15 20 20 19 19
100 308 350 356 60 259 173 253 314 351 328 330 264 324 271 250 267 263 15 340 22 15 49 69 352 348 8 349 93 95 18 49 328 323 23 331 353 330 354 334 329 23 18 347 357 97 64 253 237 205 243 219 211 210 215 215 240 252 252 251 226 216 255 222 241 215 178 210 220 247 271 241 261 302 325 341 1 52 39 352 19 25 8 6 12 14 18 16
3 25 323 350 359 299 272 339 357 18 359 338 23 303 318 7 5 339 348 81 348 28 64 84 352 356 24 29 46 107 197 152 188 303 290 38 335 26 298 220 307 336 26 345 344 329 63 281 329 308 357 300 277 262 249 231 225 253 249 176 154 228 250 246 224 239 197 255 266 258 299 284 262 259 297 35 52 66 43 33 13 344 360 2 7 19 17 11
299 267 285 328 355 301 331 8 356 345 28 354 22 325 8 347 339 314 257 245 108 121 90 100 159 22 17 64 86 96 210 167 175 193 227 235 295 252 4 285 1 311 331 352 20 328 20 282 7 6 330 296 280 255 252 270 289 277 273 66 301 299 291 263 223 251 156 265 276 241 280 265 268 309 262 121 57 54 47 9 354 337 323 359 28 20 8 350
316 273 2 116 331 312 26 325 333 43 21 340 348 338 356 328 346 349 356 347 94 117 118 118 156 93 356 27 30 184 213 197 217 237 223 234 222 255 235 253 265 270 266 284 205 243 210 311 335 6 302 257 258 237 269 21 358 288 271 213 220 238 241 279 296 90 212 176 121 200 235 219 234 289 3 356 33 48 30 335 322 317 329 36 43 6 338 326